Location: Rounton
(54.4000°N, 1.3500°W)
Time: 04:22:54
(UTC+00:00)

Vanguard 1 - Pass Details

Date: 09 December 2021
Orbit: 652 x 3830 km, 34.2° (Epoch: 17 January)

Event Time Altitude Azimuth Distance (km) Brightness Sun altitude
Exits shadow 02:41:40 36° 173° (S) 4,714 13.2 -46.1°
Drops below altitude 10° 02:53:36 10° 136° (SE) 5,744 14.1 -44.6°
Sets 02:57:43 0° 129° (SE) 6,383 14.5 -44.0°
